Flag for Germany Weather past 2 weeks in Bad Oldesloe, Schleswig-Holstein, Germany

46 °F

Light rain. Fog.

Feels Like: 45 °F
Forecast: 40 / 50 °F
Wind: 3 mph from Southeast

Location: Luebeck-Blankensee

Current Time: Oct 9, 2015 at 9:47:29 AM

Latest Report: Oct 9, 2015 at 8:50 AM

Visibility: 2 mi

Pressure: 30.18 "Hg

Humidity: 100%

Dew point: 46 °F

Location of Bad OldesloeLocation

Historic Weather in Bad Oldesloe — Graph


Bad Oldesloe temperature yesterday

Maximum temperature yesterday: 52 °F (at 12:50 PM)
Minimum temperature yesterday: 50 °F (at 6:50 AM)
Average temperature yesterday: 51 °F

Past Weeks' High & Low Weather Summary

High66 °F (Oct 4, 3:20 PM)100% (Sep 24, 8:20 AM)30.74 "Hg (Sep 24, 8:20 AM)
Low34 °F (Oct 3, 6:50 AM)52% (Sep 26, 4:50 PM)29.74 "Hg (Oct 6, 4:20 PM)
Average55 °F83%30.23 "Hg
* Reported Sep 24 8:20 AM — Oct 9 8:50 AM, Bad Oldesloe, Weather by CustomWeather, © 2015

Note: Actual official high and low records may vary slightly from our data, if they occured in-between our weather recording intervals... More about our weather records


Bad Oldesloe weather history for previous 24 hours

Time TempWeatherWind HumidityBarometerVisibility
8:50 AM
Fri, Oct 9
46 °FLight rain. Fog.3 mph100%30.18 "Hg2 mi
8:20 AM46 °FFog.3 mph100%30.18 "Hg2 mi
7:50 AM46 °FFog.5 mph100%30.18 "Hg1 mi
7:20 AM46 °FFog.5 mph100%30.18 "Hg1 mi
6:50 AM46 °FFog.3 mph100%30.15 "Hg1 mi
9:50 PM
Thu, Oct 8
50 °FLow clouds.5 mph94%30.15 "Hg4 mi
9:20 PM50 °FLow clouds.6 mph94%30.15 "Hg4 mi
8:50 PM50 °FLow clouds.6 mph94%30.15 "Hg4 mi
8:20 PM50 °FFog.5 mph94%30.12 "Hg3 mi
7:50 PM50 °FFog.5 mph94%30.12 "Hg4 mi
7:20 PM50 °FFog.3 mph100%30.12 "Hg3 mi
6:50 PM50 °FFog.5 mph100%30.12 "Hg2 mi
6:20 PM50 °FDrizzle. Low clouds.5 mph100%30.12 "Hg1 mi
5:50 PM50 °FDrizzle. Low clouds.6 mph100%30.12 "Hg1 mi
5:20 PM52 °FFog.5 mph94%30.09 "Hg2 mi
4:50 PM52 °FDrizzle. Fog.5 mph94%30.09 "Hg1 mi
4:20 PM52 °FFog.3 mph100%30.09 "Hg1 mi
3:50 PM52 °FDrizzle. Fog.3 mph100%30.09 "Hg1 mi
3:20 PM52 °FLight rain. Fog.5 mph100%30.09 "Hg1 mi
2:50 PM52 °FFog.3 mph100%30.09 "Hg2 mi
2:20 PM52 °FFog.5 mph100%30.09 "Hg1 mi
1:50 PM52 °FDrizzle. Fog.5 mph100%30.09 "Hg1 mi
1:20 PM52 °FFog.5 mph94%30.09 "Hg1 mi
12:50 PM52 °FFog.5 mph94%30.09 "Hg2 mi
12:20 PM50 °FFog.6 mph100%30.07 "Hg2 mi
11:50 AM50 °FFog.5 mph100%30.07 "Hg3 mi
11:20 AM50 °FFog.5 mph100%30.07 "Hg2 mi
10:50 AM50 °FFog.6 mph100%30.07 "Hg1 mi
10:20 AM50 °FFog.6 mph100%30.07 "Hg3 mi
9:50 AM50 °FFog.5 mph100%30.04 "Hg2 mi
9:20 AM50 °FFog.5 mph100%30.04 "Hg2 mi
Weather by CustomWeather, © 2015

See weather overviewHow to use our weather pages